Flag for Turkey Weather past 2 weeks in Izmir, Turkey

Now
84 °F

Sunny.


Feels Like: 83 °F
Forecast: 68 / 100 °F
Wind: 13 mph from North

Location: Izmir / Adnan Menderes

Current Time: Aug 21, 2014 at 9:41:14 PM

Latest Report: Aug 21, 2014 at 8:50 PM


Visibility: 10 mi

Pressure: 29.92 "Hg

Humidity: 40%

Dew point: 57 °F

Location of IzmirLocation

Historic Weather in Izmir — Graph

°F

Izmir temperature yesterday

Maximum temperature yesterday: 91 °F (at 2:50 PM)
Minimum temperature yesterday: 73 °F (at 1:20 AM)
Average temperature yesterday: 81 °F

Past Weeks' High & Low Weather Summary

 TemperatureHumidityPressure
High99 °F (Aug 13, 2:50 PM)94% (Aug 7, 6:50 AM)29.98 "Hg (Aug 7, 6:50 AM)
Low63 °F (Aug 21, 6:20 AM)19% (Aug 14, 3:50 PM)29.62 "Hg (Aug 6, 8:20 PM)
Average82 °F54%29.79 "Hg
* Reported Aug 6 8:20 PM — Aug 21 8:20 PM, Izmir, Weather by CustomWeather, © 2014

Note: Actual official high and low records may vary slightly from our data, if they occured in-between our weather recording intervals... More about our weather records

Advertising

Izmir weather history for previous 24 hours

 ConditionsComfort  
Time TempWeatherWind HumidityBarometerVisibility
8:20 PM
Aug 21
86 °FSunny.12 mph38%29.92 "Hg10 mi
7:50 PM86 °FSunny.13 mph40%29.89 "Hg10 mi
7:20 PM88 °FSunny.10 mph38%29.92 "Hg10 mi
6:50 PM90 °FPassing clouds.12 mph33%29.92 "HgN/A
6:20 PM91 °FSunny.16 mph32%29.92 "Hg10 mi
5:50 PM93 °FSunny.17 mph30%29.92 "Hg10 mi
5:20 PM93 °FSunny.18 mph26%29.92 "Hg10 mi
4:50 PM93 °FSunny.18 mph26%29.92 "Hg10 mi
4:20 PM95 °FSunny.18 mph26%29.92 "Hg10 mi
3:50 PM95 °FSunny.21 mph25%29.92 "Hg10 mi
3:20 PM95 °FSunny.23 mph23%29.92 "Hg10 mi
2:50 PM95 °FSunny.26 mph20%29.92 "Hg10 mi
2:20 PM93 °FSunny.18 mph26%29.95 "Hg10 mi
1:50 PM93 °FSunny.16 mph30%29.95 "Hg10 mi
1:20 PM93 °FSunny.16 mph32%29.95 "Hg10 mi
12:50 PM91 °FSunny.15 mph32%29.95 "Hg10 mi
12:20 PM90 °FSunny.14 mph36%29.95 "Hg10 mi
11:50 AM88 °FSunny.14 mph43%29.95 "Hg10 mi
11:20 AM88 °FPassing clouds.12 mph46%29.98 "HgN/A
10:50 AM86 °FPassing clouds.6 mph46%29.98 "HgN/A
10:20 AM82 °FPassing clouds.5 mph51%29.98 "HgN/A
9:50 AM81 °FSunny.2 mph58%29.98 "Hg10 mi
9:20 AM77 °FPassing clouds.3 mph61%29.98 "HgN/A
8:50 AM75 °FPassing clouds.3 mph61%29.98 "HgN/A
8:20 AM73 °FSunny.2 mph61%29.98 "Hg10 mi
7:50 AM70 °FSunny.1 mph69%29.98 "Hg10 mi
7:20 AM68 °FClear.2 mph73%29.98 "Hg10 mi
6:50 AM64 °FClear.1 mph78%29.98 "Hg10 mi
6:20 AM63 °FClear.2 mph77%29.95 "Hg10 mi
5:50 AM64 °FClear.1 mph78%29.95 "Hg10 mi
5:20 AM64 °FClear.2 mph78%29.95 "Hg10 mi
4:50 AM64 °FClear.2 mph73%29.95 "Hg10 mi
4:20 AM64 °FClear.2 mph73%29.95 "Hg10 mi
3:50 AM66 °FClear.2 mph68%29.95 "Hg10 mi
3:20 AM68 °FClear.No wind64%29.95 "Hg10 mi
2:50 AM66 °FClear.3 mph68%29.95 "Hg10 mi
2:20 AM68 °FClear.2 mph64%29.95 "Hg10 mi
1:50 AM68 °FClear.2 mph73%29.95 "Hg10 mi
1:20 AM70 °FClear.2 mph69%29.95 "Hg10 mi
12:50 AM70 °FClear.2 mph69%29.95 "Hg10 mi
12:20 AM72 °FClear.2 mph65%29.95 "Hg10 mi
11:50 PM
Aug 20
73 °FClear.2 mph61%29.95 "Hg10 mi
11:20 PM73 °FClear.2 mph61%29.95 "Hg10 mi
10:50 PM75 °FPassing clouds.3 mph57%29.95 "HgN/A
10:20 PM77 °FPassing clouds.5 mph54%29.95 "HgN/A
9:50 PM79 °FClear.9 mph51%29.95 "Hg10 mi
9:20 PM79 °FClear.9 mph54%29.95 "Hg10 mi
Weather by CustomWeather, © 2014

See weather overviewHow to use our weather pages